Location: Casco Millpond
(44.5581°N, 87.6111°W)
Time: 09:52:57
(UTC+00:00)

GRACE-FO 2 - Pass Details

Date: 16 January 2026
Orbit: 448 x 460 km, 89.0° (Epoch: 10 February)

Event Time Altitude Azimuth Distance (km) Brightness Sun altitude
Rises 12:38:13 0° 177° (S) 2,446 8.5 -8.1°
Reaches altitude 10° 12:40:15 10° 176° (S) 1,581 7.5 -7.7°
Maximum altitude 12:43:40 84° 89° (E) 462 4.5 -7.2°
Drops below altitude 10° 12:47:08 10° 1° (N) 1,604 7.0 -6.6°
Sets 12:49:13 0° 0° (N) 2,485 7.9 -6.2°
